Terminal Aerodrome Forecast
Issued by NWS Cleveland, OH

Home | Current Version | Previous Version | Text Only | Print | Product List | Glossary Off
Versions: 1 2 3 4 5 6 7 8 9 10 11 12 13 14 15 16 17 18 19 20 21 22 23 24 25 26 27 28 29 30 31

000
FTUS41 KCLE 300200 AAA
TAFCLE
TAF AMD
KCLE 300254Z 3003/3106 31015KT 5SM -SN OVC015
     FM300600 30015G22KT P6SM OVC015
     FM301200 32016G23KT 4SM -SN OVC015
     FM301700 32016G23KT P6SM OVC025
     FM302100 32014G21KT P6SM OVC050
     FM302200 32011KT P6SM BKN250
     FM310000 VRB03KT P6SM BKN250=

USA.gov is the U.S. government's official web portal to all federal, state and local government web resources and services.